Location: Newark
(35.6799°N, 139.7636°E)
Time: 01:04:28
(UTC+00:00)

Explorer 7 - Pass Details

Date: 14 December 2019
Orbit: 485 x 679 km, 50.3° (Epoch: 20 January)

Event Time Altitude Azimuth Distance (km) Brightness Sun altitude
Rises 03:46:25 0° 208° (SSW) 2,864 11.7 28.8°
Reaches altitude 10° 03:48:47 10° 199° (SSW) 1,993 11.4 28.6°
Maximum altitude 03:53:02 38° 132° (SE) 997 8.7 28.3°
Drops below altitude 10° 03:57:29 10° 65° (ENE) 2,088 9.5 28.0°
Sets 04:00:00 0° 58° (ENE) 3,020 10.2 27.8°
